Stations météo

réclame
Mon MeteoGroup
Llerena, Espagne (8336): Température de l'air & dewpoint: 17.10.2017 04:00:00 - 23.10.2017 04:00:00 (CEST)Llerena, Espagne (8336): Vitesse du vent & gusts: 17.10.2017 04:00:00 - 23.10.2017 04:00:00 (CEST)Llerena, Espagne (8336): Direction du vent: 17.10.2017 04:00:00 - 23.10.2017 04:00:00 (CEST)Llerena, Espagne (8336): reduced air pressure: 17.10.2017 04:00:00 - 23.10.2017 04:00:00 (CEST)Llerena, Espagne (8336): visibility: 17.10.2017 04:00:00 - 23.10.2017 04:00:00 (CEST)Llerena, Espagne (8336): Ensoleillement: 17.10.2017 04:00:00 - 23.10.2017 04:00:00 (CEST)Llerena, Espagne (8336): Quantités de précipitations: 17.10.2017 04:00:00 - 23.10.2017 04:00:00 (CEST)
Date & Time tt [°C] td [°C] ff [km/h] ff [knt] fx [km/h] fx [knt] dd ppp [hPa] vv [km] sd [min] rr [mm]
23.10.2017 04:00:00 13,1 8,9 8 4 22 12 E 1024,6 20 0 0,0
23.10.2017 03:00:00 14,0 9,2 11 6 22 12 E 1024,5 20 0 0,0
23.10.2017 02:00:00 13,6 9,0 16 9 22 12 E 1025,0 20 0 -
23.10.2017 01:00:00 13,9 9,3 8 4 21 11 E 1025,1 20 0 0,0
23.10.2017 00:00:00 13,0 9,0 16 8 21 12 E 1025,5 20 0 0,0
22.10.2017 23:00:00 14,3 9,0 14 7 18 10 E 1024,9 20 0 0,0
22.10.2017 22:00:00 15,0 8,9 11 6 22 12 ENE 1024,5 20 0 0,0
22.10.2017 21:00:00 16,4 9,8 16 9 25 14 NNE 1023,9 20 0 0,0
22.10.2017 20:00:00 18,5 7,6 14 8 26 14 NNE 1023,0 20 9 -
22.10.2017 19:00:00 20,8 7,7 9 5 23 12 N 1022,0 20 60 0,0
22.10.2017 18:00:00 22,1 7,8 8 4 27 14 NNE 1021,7 20 60 0,0
22.10.2017 17:00:00 23,4 6,7 10 6 25 14 ESE 1021,5 20 60 0,0
22.10.2017 16:00:00 22,7 6,4 14 7 26 14 NNE 1022,0 20 60 0,0
22.10.2017 15:00:00 21,6 7,8 8 5 23 13 NE 1022,8 20 60 0,0
22.10.2017 14:00:00 20,5 9,0 9 5 29 16 E 1023,7 20 60 -
22.10.2017 13:00:00 18,3 7,7 13 7 28 15 ENE 1024,8 20 60 0,0
22.10.2017 12:00:00 16,4 7,6 7 4 21 12 E 1025,4 20 60 0,0
22.10.2017 11:00:00 14,3 7,8 5 3 22 12 NNE 1026,1 20 60 0,0
22.10.2017 10:00:00 13,0 6,4 4 2 18 10 NNE 1026,2 20 60 0,0
22.10.2017 09:00:00 9,4 5,8 4 2 6 3 ENE 1026,3 20 6 0,0
22.10.2017 08:00:00 8,9 5,1 2 1 6 3 E 1026,4 20 0 -
22.10.2017 07:00:00 9,3 5,5 2 1 17 9 ESE 1026,3 20 0 0,0
22.10.2017 06:00:00 10,1 5,6 3 1 14 7 NNE 1026,0 20 0 0,0
22.10.2017 05:00:00 10,1 5,9 1 1 17 9 SE 1025,8 20 0 0,0
22.10.2017 04:00:00 11,0 6,1 8 4 24 13 NNW 1026,1 20 0 0,0
22.10.2017 03:00:00 11,3 6,4 3 1 18 10 ENE 1026,4 20 0 0,0
22.10.2017 02:00:00 11,9 7,0 7 4 21 11 N 1026,3 20 0 -
22.10.2017 01:00:00 12,9 8,5 14 7 26 14 N 1025,8 19 0 0,0
22.10.2017 00:00:00 13,9 10,2 18 10 37 20 N 1025,5 20 0 0,0
21.10.2017 23:00:00 14,8 11,2 14 7 32 18 NNW 1025,0 20 0 0,0
21.10.2017 22:00:00 15,8 13,1 17 9 32 17 NNW 1024,5 20 0 0,0
21.10.2017 21:00:00 16,4 13,2 8 4 26 14 NNW 1024,3 20 0 0,0
21.10.2017 20:00:00 17,7 13,3 16 9 33 18 N 1023,3 20 10 -
21.10.2017 19:00:00 19,4 13,2 15 8 33 18 N 1022,4 20 21 0,0
21.10.2017 18:00:00 20,9 12,3 20 11 32 17 N 1022,1 20 55 0,0
21.10.2017 17:00:00 20,4 12,8 15 8 32 17 N 1022,3 20 21 0,0
21.10.2017 16:00:00 23,3 14,3 10 5 29 16 NW 1021,9 2,8 45 0,0
21.10.2017 15:00:00 21,0 14,1 16 9 28 15 N 1023,0 20 15 0,0
21.10.2017 14:00:00 21,3 14,9 15 8 26 14 N 1023,7 4,8 53 -
21.10.2017 13:00:00 19,4 15,9 19 11 36 19 N 1024,7 20 12 0,0
21.10.2017 12:00:00 16,4 15,3 15 8 38 20 N 1025,5 14 0 0,2
21.10.2017 11:00:00 18,1 15,5 18 10 30 16 N 1024,5 13 6 0,0
21.10.2017 10:00:00 16,8 15,8 13 7 25 14 NNW 1024,4 11 0 0,0
21.10.2017 09:00:00 16,2 15,3 13 7 19 10 NNE 1023,9 9 0 0,0
21.10.2017 08:00:00 16,0 15,1 11 6 20 11 NNE 1023,7 11 0 -
21.10.2017 07:00:00 16,6 15,6 9 5 25 13 NNW 1023,2 13 0 0,0
21.10.2017 06:00:00 16,7 15,5 12 6 28 15 NW 1022,8 14 0 0,0
21.10.2017 05:00:00 17,1 16,0 9 5 23 12 NNW 1022,4 15 0 0,0
21.10.2017 04:00:00 17,2 16,0 6 4 18 10 NNW 1022,5 19 0 0,0
21.10.2017 03:00:00 17,1 16,0 3 1 15 8 SW 1022,7 10 0 0,0
21.10.2017 02:00:00 17,1 16,0 3 2 18 10 WNW 1022,7 18 0 -
21.10.2017 01:00:00 17,4 16,0 10 5 19 11 NNW 1022,8 20 0 0,0
21.10.2017 00:00:00 17,4 15,7 7 4 15 8 NW 1023,0 19 0 0,0
20.10.2017 23:00:00 - - - - - - - - - - -
20.10.2017 22:00:00 18,4 15,3 4 2 11 6 W 1022,1 20 0 0,0
20.10.2017 21:00:00 18,9 15,5 8 4 18 10 NW 1021,7 20 0 0,0
20.10.2017 20:00:00 19,2 15,3 9 5 16 9 NW 1021,1 20 0 -
20.10.2017 19:00:00 20,1 14,7 9 5 24 13 NW 1020,4 20 1 0,0
20.10.2017 18:00:00 22,2 14,3 6 4 25 14 NNW 1019,6 20 58 0,0
20.10.2017 17:00:00 22,1 14,5 8 4 24 13 NW 1019,9 20 18 0,0
20.10.2017 16:00:00 22,2 14,6 9 5 25 13 NNW 1019,8 20 12 0,0
20.10.2017 15:00:00 22,2 14,6 8 5 24 13 NNW 1019,8 20 18 0,0
20.10.2017 14:00:00 22,2 14,6 5 3 18 10 WSW 1020,4 20 28 -
20.10.2017 13:00:00 23,4 15,4 6 3 16 9 S 1020,3 20 54 0,0
20.10.2017 12:00:00 18,4 14,9 7 4 19 10 WSW 1021,2 19 11 0,0
20.10.2017 11:00:00 17,0 14,8 7 4 20 11 WSW 1021,1 11 13 0,0
20.10.2017 10:00:00 14,9 13,9 8 4 19 10 W 1021,2 7 0 0,0
20.10.2017 09:00:00 14,2 13,3 9 5 19 11 W 1020,3 10 0 0,0
20.10.2017 08:00:00 14,2 13,5 11 6 19 10 SW 1019,7 13 0 -
20.10.2017 07:00:00 14,2 13,3 12 6 27 14 W 1019,6 2,7 0 0,0
20.10.2017 06:00:00 14,4 13,5 11 6 27 15 WSW 1019,3 4,2 0 0,0
20.10.2017 05:00:00 14,4 13,3 15 8 26 14 WSW 1019,1 10 0 0,0
20.10.2017 04:00:00 14,1 13,2 14 8 23 13 WSW 1019,2 7 0 0,0
20.10.2017 03:00:00 13,9 12,7 14 8 28 15 WSW 1019,5 17 0 0,0
20.10.2017 02:00:00 13,6 12,5 10 6 25 14 W 1019,4 18 0 -
20.10.2017 01:00:00 13,2 11,8 10 6 28 15 W 1019,4 19 0 0,0
20.10.2017 00:00:00 13,3 11,7 12 6 16 9 WNW 1019,4 20 0 0,0
19.10.2017 23:00:00 13,7 11,8 11 6 19 11 W 1018,7 20 0 0,0
19.10.2017 22:00:00 14,2 11,9 12 7 19 10 WNW 1017,9 20 0 0,0
19.10.2017 21:00:00 15,2 11,8 13 7 23 13 WNW 1017,1 20 0 0,0
19.10.2017 20:00:00 16,2 11,3 11 6 37 20 NW 1016,2 20 0 -
19.10.2017 19:00:00 16,9 11,0 16 9 32 18 NW 1015,5 20 1 0,0
19.10.2017 18:00:00 17,6 10,8 20 11 38 20 NNW 1014,5 20 32 0,0
19.10.2017 17:00:00 18,1 10,4 20 11 38 20 NW 1014,1 20 39 0,0
19.10.2017 16:00:00 19,4 10,4 20 11 36 20 NW 1013,6 20 51 0,0
19.10.2017 15:00:00 17,9 9,0 24 13 37 20 NNW 1014,3 20 44 0,0
19.10.2017 14:00:00 19,0 10,0 18 10 29 16 NW 1014,4 20 42 -
19.10.2017 13:00:00 16,4 11,6 16 9 28 15 N 1014,9 20 21 0,0
19.10.2017 12:00:00 15,2 11,2 5 3 17 9 NNE 1014,5 19 12 0,0
19.10.2017 11:00:00 13,4 10,9 10 5 26 14 N 1014,6 17 0 0,0
19.10.2017 10:00:00 12,4 10,6 12 6 27 15 N 1014,0 20 0 0,0
19.10.2017 09:00:00 11,7 10,6 9 5 16 9 N 1013,3 15 0 0,0
19.10.2017 08:00:00 11,4 10,3 3 2 14 8 SSW 1013,1 10 0 -
19.10.2017 07:00:00 11,2 10,0 7 4 21 11 NNW 1012,7 14 0 0,0
19.10.2017 06:00:00 11,3 10,2 10 5 17 9 NNW 1012,4 17 0 0,0
19.10.2017 05:00:00 11,6 10,5 6 4 16 9 N 1012,1 15 0 0,0
19.10.2017 04:00:00 11,8 10,5 5 3 18 10 N 1012,6 20 0 0,0
19.10.2017 03:00:00 12,0 10,8 12 6 26 14 N 1012,9 20 0 0,2
19.10.2017 02:00:00 12,5 10,8 12 7 22 12 W 1013,2 19 0 -
19.10.2017 01:00:00 12,9 11,0 15 8 23 13 W 1013,5 19 0 0,0
19.10.2017 00:00:00 13,4 11,1 15 8 27 15 W 1013,5 20 0 0,0
18.10.2017 23:00:00 13,7 10,3 16 8 27 14 WSW 1013,6 20 0 0,0
18.10.2017 22:00:00 13,6 10,2 14 8 27 15 WSW 1012,9 20 0 0,0
18.10.2017 21:00:00 13,3 9,9 11 6 29 15 W 1013,1 20 0 0,0
18.10.2017 20:00:00 13,9 9,3 14 8 32 17 W 1012,9 20 16 -
18.10.2017 19:00:00 15,6 8,5 16 9 38 20 W 1012,2 19 37 0,0
18.10.2017 18:00:00 15,7 8,9 20 11 40 22 W 1012,3 20 32 0,0
18.10.2017 17:00:00 17,9 8,8 23 12 42 23 WNW 1011,7 20 51 0,0
18.10.2017 16:00:00 17,1 12,0 17 9 33 18 WNW 1011,9 20 35 0,1
18.10.2017 15:00:00 14,9 10,9 22 12 40 21 WNW 1013,3 20 14 0,0
18.10.2017 14:00:00 15,0 11,3 16 9 30 16 W 1013,8 20 10 -
18.10.2017 13:00:00 15,0 11,8 15 8 24 13 WSW 1014,1 20 4 0,0
18.10.2017 12:00:00 13,0 11,4 16 9 36 19 W 1015,1 20 0 0,3
18.10.2017 11:00:00 13,4 11,7 17 9 29 15 W 1014,6 20 0 0,0
18.10.2017 10:00:00 12,7 11,4 19 10 33 18 W 1014,3 20 0 0,3
18.10.2017 09:00:00 12,6 11,4 17 9 32 17 WSW 1013,9 19 0 0,0
18.10.2017 08:00:00 12,9 11,8 15 8 24 13 SW 1013,4 20 0 -
18.10.2017 07:00:00 12,7 11,4 10 5 17 9 WSW 1013,9 8 0 0,8
18.10.2017 06:00:00 13,1 11,4 11 6 24 13 W 1014,1 20 0 0,1
18.10.2017 05:00:00 13,9 12,7 18 10 24 13 WSW 1014,4 14 0 0,4
18.10.2017 04:00:00 14,3 13,4 14 8 23 12 SW 1015,3 20 0 1,5
18.10.2017 03:00:00 14,5 13,3 12 7 23 12 SW 1015,6 7 0 0,2
18.10.2017 02:00:00 14,9 13,0 10 5 25 13 SSW 1015,9 18 0 -
18.10.2017 01:00:00 15,4 13,3 16 9 23 12 SSW 1016,5 19 0 0,0
18.10.2017 00:00:00 15,7 13,4 14 7 24 13 S 1016,9 20 0 0,0
17.10.2017 23:00:00 15,6 13,7 9 5 17 9 SW 1017,5 20 0 0,0
17.10.2017 22:00:00 15,1 12,6 5 3 24 13 WSW 1018,0 20 0 0,0
17.10.2017 21:00:00 16,0 13,5 12 7 29 15 W 1017,4 18 0 0,0
17.10.2017 20:00:00 16,7 14,9 15 8 29 15 S 1016,8 18 0 -
17.10.2017 19:00:00 17,5 15,0 15 8 28 15 S 1016,9 20 9 0,0
17.10.2017 18:00:00 18,2 14,9 17 9 28 15 S 1017,1 17 8 0,0
17.10.2017 17:00:00 19,0 15,1 15 8 31 17 S 1017,5 16 45 0,0
17.10.2017 16:00:00 18,9 15,2 19 10 33 18 S 1017,9 20 6 0,0
17.10.2017 15:00:00 17,8 14,9 19 11 39 21 S 1019,0 18 11 0,0
17.10.2017 14:00:00 15,9 14,2 17 9 48 26 S 1020,0 15 0 -
17.10.2017 13:00:00 15,6 14,1 20 11 39 21 S 1020,5 5 0 0,0
17.10.2017 12:00:00 16,8 14,0 15 8 42 23 S 1019,5 17 0 0,0
17.10.2017 11:00:00 16,8 14,2 13 7 25 13 SSW 1020,6 11 0 0,0
17.10.2017 10:00:00 17,5 13,7 19 10 40 22 SSW 1020,2 12 0 0,0
17.10.2017 09:00:00 17,1 12,0 17 9 45 25 SSW 1019,7 13 0 0,0
17.10.2017 08:00:00 17,3 11,3 24 13 45 25 SSW 1019,3 12 0 -
17.10.2017 07:00:00 17,6 10,8 22 12 46 25 SW 1019,1 13 0 0,0
17.10.2017 06:00:00 18,3 9,7 21 11 57 31 S 1018,8 14 0 0,0
17.10.2017 05:00:00 18,7 9,4 25 13 48 26 S 1018,6 13 0 0,0
17.10.2017 04:00:00 19,3 9,2 20 11 43 23 SSE 1019,2 12 0 0,0

tt = Température de l'air
td = dewpoint
ff = Vitesse du vent
fx = gusts
dd = Direction du vent
ppp = reduced air pressure
vv = visibility
sd = Ensoleillement
rr = Quantités de précipitations

stations d'obs. à proximité